Regional Weather Roundup
Issued by NWS Grand Forks, ND

Home | Current Version | Previous Version | Text Only | Print | Product List | Glossary Off
Versions: 1 2 3 4 5 6 7 8 9 10 11 12 13 14 15 16 17 18 19 20 21 22 23 24 25 26 27 28 29 30 31 32 33 34 35 36 37 38 39 40 41 42 43 44 45 46 47 48 49 50

000
ASUS43 KFGF 010931
RWRFGF
PRAIRIE TO PINES  WEATHER ROUNDUP
NATIONAL WEATHER SERVICE EASTERN NORTH DAKOTA/GRAND FORKS ND
300 AM CST WED MAR 01 2017

 **SATELLITE DATA USED TO AUGMENT SKY COVER AT AUTOMATED STATIONS**
 *****  WEATHER ACROSS EASTERN NORTH DAKOTA  *****

CITY           SKY/WX    TMP DP  RH WIND       PRES   REMARKS
GRAND FORKS    FAIR       9   0  67 NW12      29.94R WCI  -6
GRAND FRKS AFB FAIR       8   1  73 N7        29.94S WCI  -3
DEVILS LAKE    MOCLDY     4  -1  80 NW5       29.94R WCI  -5
FARGO          FAIR      17  13  84 N14       29.90S WCI   3
WAHPETON ARPT  FAIR      19  16  86 NW10      29.88S WCI   8
$$

 ***** WEATHER ACROSS CENTRAL AND WESTERN NORTH DAKOTA  *****

CITY           SKY/WX    TMP DP  RH WIND       PRES   REMARKS
BISMARCK       FLURRIES  16  12  84 NE8       29.92R WCI   5
MINOT          LGT SNOW  14  10  84 N3        29.93S FOG
JAMESTOWN      FAIR      12   9  87 NW9       29.90S WCI   0
MINOT AFB      FLURRIES  12   9  85 CALM      29.93S
GARRISON         N/A     15  11  83 NE3       29.90R
WILLISTON      CLOUDY    17  13  84 NW10      29.97R WCI   5
DICKINSON      CLOUDY    24  21  88 NW16      29.87R WCI  11
HETTINGER      CLOUDY    25  22  88 NW15      29.89R WCI  13
$$

 *****  OTHER AIRPORT OBSERVATIONS IN OUR AREA  *****

CITY           SKY/WX    TMP DP  RH WIND       PRES   REMARKS
WALHALLA       NOT AVBL
GRAFTON AIRPOR FAIR       7   0  72 NW7       29.97S WCI  -5
VALLEY CITY AR FAIR      14  12  92 NW12      29.92S WCI   0
CANDO          NOT AVBL
CAVALIER APRT    N/A     10   3  72 NW8       29.96S WCI  -1
GWINNER        FAIR      19  16  86 NW10      29.89F WCI   8
ROLLA          LGT SNOW  10  10 100 N3        29.92S
 ***** THE ABOVE OBSERVATIONS ARE NON NWS ARE NOT QUALITY
       CONTROLLED AND MAY MIS-REPORT RAIN FOR SNOW...
$$

  *****  WEATHER ACROSS NORTHERN MINNESOTA  *****

CITY           SKY/WX    TMP DP  RH WIND       PRES   REMARKS
FLAG ISLAND    FAIR       9   0  66 N5        29.92S WCI   0
WARROAD        FAIR      10   1  67 NE5       29.92S WCI   2
ROSEAU         FAIR       5  -2  72 N6        29.92R WCI  -6
HALLOCK        FAIR       3   0  85 NW8       29.93S WCI -10
THF RVR FALLS  FAIR      15   6  67 NE5       29.90S WCI   8
BAUDETTE       FAIR      11   1  64 NE3       29.89F
WASKISH        FAIR      14   7  73 NE6       29.88S WCI   5
CROOKSTON      FAIR      10   9  92 N9        29.93R WCI  -2
STEPHEN NDAWN    N/A      3   1  92 NW3         N/A
GREENBUSH NDAW   N/A      1  -4  78 N1          N/A
$$
  *****  WEATHER ACROSS CENTRAL AND WEST MINNESOTA  *****

CITY           SKY/WX    TMP DP  RH WIND       PRES   REMARKS
FOSSTON        FAIR      16  10  79 NE5       29.87S WCI   9
BEMIDJI        FAIR      18  10  71 NW5       29.85S WCI  11
PARK RAPIDS    MOCLDY    23  13  65 N6        29.82S WCI  16
ELBOW LAKE     PTSUNNY   25  21  85 N3        29.84S
WADENA         FAIR      23  18  80 N3        29.81S
DETROIT LAKES  FAIR      25  19  80 CALM      29.85R
MOORHEAD       FAIR      18  12  79 N13       29.90S WCI   4
FERGUS FALLS   FAIR      25  19  80 N5        29.89S WCI  19
MORRIS MN      FAIR      28  25  86 NW10      29.82S WCI  19
STAPLES        CLOUDY    25  19  80 N6        29.81S WCI  18
$$
  *****  WEATHER ELSEWHERE ACROSS MINNESOTA  *****

CITY           SKY/WX    TMP DP  RH WIND       PRES   REMARKS
DULUTH         CLOUDY    22  16  78 NE10      29.79S WCI  11
INTRNTL FALLS  FAIR      12   1  61 NE6       29.90S WCI   3
ELY            FAIR      12   3  67 NE3       29.84R
CLOQUET        CLOUDY    23  16  74 NE7       29.79F WCI  15
WHEATON        FAIR      21  18  86 NW9       29.89R WCI  11
BRAINERD       CLOUDY    28  21  75 N8        29.81S WCI  20
HIBBING        FAIR      17   5  59 NE9       29.82F WCI   6
ALEXANDRIA     FAIR      27  21  78 N9        29.80F WCI  18
SAINT CLOUD    CLOUDY    29  26  89 N10       29.77F WCI  20
MINNEAPOLIS    CLOUDY    29  24  82 N14       29.71F WCI  18
$$

  *****  WEATHER ACROSS SOUTH DAKOTA  *****

CITY           SKY/WX    TMP DP  RH WIND       PRES   REMARKS
SIOUX FALLS    LGT SNOW  30  28  92 NW14      29.80S FOG     WCI  19
BROOKINGS      LGT SNOW  25  23  93 NW13      29.79S FOG     WCI  13
WATERTOWN      CLOUDY    22  20  92 N10       29.82S WCI  11
HURON          CLOUDY    24  23  96 N12       29.88F WCI  13
SISSETON         N/A     22  18  85 N17       29.86S WCI   8
ABERDEEN       MOCLDY    22  17  81 NW10      29.91R WCI  11
MITCHELL       LGT SNOW  26  24  92 NW15      29.89R FOG     WCI  14
PIERRE         CLOUDY    21  19  92 W8        29.92R WCI  11
MOBRIDGE       MOCLDY    20  15  81 NW3       29.89R
RAPID CITY     FAIR      22  16  78 W10       29.90R WCI  11
$$

  *****  SOME WEATHER IN NEARBY STATES *****

CITY           SKY/WX    TMP DP  RH WIND       PRES   REMARKS
GLASGOW MT     FAIR      17  13  84 N5        30.00R WCI  10
GREAT FALLS MT FAIR      20   8  60 SW17      29.93S WCI   5
CHEYENNE WY    FAIR      20   6  55 W23G31    29.99R WCI   3
SCOTTSBLUFF NE FAIR      24  12  60 W18G26    29.99R WCI  10
OMAHA NE       CLOUDY    35  30  82 NW17G26   29.80R WCI  25
DES MOINES IA  CLOUDY    38  35  89 NW15      29.70R
DAVENPORT IA   FOG       44  44 100 W17       29.51R VSB 3/4
CHICAGO IL     CLOUDY    48  46  93 CALM      29.41F
EAU CLAIRE WI  CLOUDY    32  26  78 NE14G20   29.63F WCI  22
LA CROSSE WI   CLOUDY    37  35  92 NW8       29.59F
$$

  *****  SOME NATIONAL WEATHER *****

CITY           SKY/WX    TMP DP  RH WIND       PRES   REMARKS
LA GUARDIA NY  CLOUDY    53  50  89 S8        29.86F
RALEIGH NC     FAIR      66  62  87 SW13      30.02F
ATLANTA GA     CLOUDY    63  62  97 SW16G23   30.06F
NEW ORLEANS LA CLOUDY    73  70  90 S14G23    29.98F
OKLAHOMA CITY  FAIR      46  28  49 N21G33    29.98R
ALBUQUERQUE NM FAIR      39  22  50 NW12      30.20R
SALT LAKE CITY CLOUDY    29  24  82 SE6       30.32R WCI  23
LOS ANGELES CA FAIR      51  33  50 CALM      30.23R
BOISE ID       CLOUDY    33  22  63 SE7       30.31R
SEATTLE WA     LGT RAIN  42  39  89 S20G30    30.24R
$$

*** WEATHER ACROSS MANITOBA...SASKATCHEWAN AND ONTARIO ***
                ***ONTARIO***

CITY           SKY/WX    TMP DP  RH WIND       PRES   REMARKS
GERALDTON      PTCLDY    -4 -13  65 NE9       29.98F WCI -20
THUNDER BAY    CLOUDY    10   0  61 N7        29.92F WCI   0
SIOUX LOOKOUT  CLEAR      3  -8  60 E5        29.96S WCI  -6
TORONTO        FOG       48  48 100 SE6       29.43F VSB 1/2
BIG TROUT LK   PTCLDY    -9 -17  70 S3        30.07S
PICKLE LAKE    NOT AVBL
DRYDEN         CLEAR      5  -2  72 E8        29.93F WCI  -8
KENORA         PTCLDY     7  -4  61 NE9       29.92  WCI  -7
$$
                *** MANITOBA***

CITY           SKY/WX    TMP DP  RH WIND       PRES   REMARKS
BRANDON        FLURRIES   9   5  85 NW7       29.97R WCI  -3
DAUPHIN        CLEAR      5   1  85 W9        29.99S WCI  -9
ISLAND LAKE    PTCLDY     5  -6  61 SE7       29.97F WCI  -7
PILOT MOUND      N/A      9   7  92 NW5         N/A  WCI   0
THE PAS        CLEAR      3  -6  66 N12G17    30.02R WCI -13
THOMPSON       FLURRIES  -2 -11  65 NW16G23   29.96R WCI -23
WINNIPEG       MOCLDY     5   0  78 NW6       29.98R WCI  -6
LYNN LAKE      CLEAR    -22 -27  76 NW10      30.02R WCI -44
CHURCHILL      CRYSTALS -26 -31  75 E8        30.07F WCI -45
GILLAM         FLURRIES   3  -2  78 S7        29.88S WCI  -9
$$
                ***SASKATCHEWAN***

CITY           SKY/WX    TMP DP  RH WIND       PRES   REMARKS
ESTEVAN        MOCLDY     7   5  92 NW8       29.96R WCI  -6
KINDERSLEY     PTCLDY     7   3  85 S8        29.90S WCI  -6
LLOYDMINSTER   PTCLDY     1  -2  85 E5        29.89R WCI  -8
PRINCE ALBERT  CLEAR      0  -8  71 NE5       30.03R WCI -10
REGINA         PTCLDY     7   5  92 W2        29.98R
YORKTON        CLEAR      3   0  85 SW6       29.97R WCI  -8
N. BATTLEFORD  CLEAR      3   0  85 E10       29.97R WCI -12
LA RONGE       PTCLDY   -11 -22  58 N3        30.11
SASKATOON      CLEAR      1  -2  85 VRB7      30.00R WCI -11
SWIFT CURRENT  CLEAR      7   5  92 SW12      29.93R WCI  -9
$$
NOTE: THESE ARE AUTOMATED STATIONS WITH LIMITED QUALITY CONTROL
      "FAIR" INDICATES FEW OR NO CLOUDS BELOW 12,000 FEET WITH NO
      SIGNIFICANT WEATHER AND/OR OBSTRUCTIONS TO VISIBILITY.
      SKY/WX - SKY CONDITION AND SIGNIFICANT WEATHER.
      TMP - AIR TEMPERATURE.    DP   - DEWPOINT TEMPERATURE.
      RH  - RELATIVE HUMIDITY.  PRES - PRESSURE.
      HX  - HEAT INDEX.         WCI  - WIND CHILL INDEX.
$



USA.gov is the U.S. government's official web portal to all federal, state and local government web resources and services.